Weather History for PAOM - November, 2012

Change the Weather History Date:

Sunday, November 4, 2012

  Actual Average Record
Temperature  
Mean Temperature 15 °F 21 °F  
Max Temperature 26 °F 27 °F 48 °F (1928)
Min Temperature 3 °F 15 °F -10 °F (1908)
Degree Days  
Heating Degree Days 50 44  
Month to date heating degree days 195 175  
Since 1 July heating degree days 2907 2830  
Cooling Degree Days 0    
Month to date cooling degree days 0  
Year to date cooling degree days 0  
Moisture  
Dew Point 8 °F    
Average Humidity 0    
Maximum Humidity 0    
Minimum Humidity 0    
Precipitation  
Precipitation T in 0.04 in 0.51 in (1945)
Month to date precipitation T 0.17  
Year to date precipitation 18.11 14.68  
Snow  
Snow T in 0.30 in 4.10 in (1994)
Month to date snowfall T 1.4  
Since 1 July snowfall 2.4 6.6  
Since 1 September snowfall 2.4 6.6  
Snow Depth 1.00 in    
Sea Level Pressure  
Sea Level Pressure 30.08 in    
Wind  
Wind Speed 5 mph (NW)    
Max Wind Speed 18 mph    
Max Gust Speed 23 mph    
Visibility 10 miles    
Events      
T = Trace of Precipitation, MM = Missing Value Source: NWS Daily Summary

Daily Weather History Graph

Daily Weather History Graph

Search for Another Location

Airport or City:

Trip Planner

Search our weather history database for the weather conditions in past years. The results will help you decide how hot, cold, wet, or windy it might be!

Date:

Astronomy

Nov. 04, 2012 Rise Set
Actual Time 9:59 AM AKST 5:29 PM AKST
Civil Twilight 9:03 AM AKST 6:25 PM AKST
Nautical Twilight 8:04 AM AKST 7:24 PM AKST
Astronomical Twilight 7:08 AM AKST 8:20 PM AKST
Moon 10:01 PM AKST (11/4) 3:14 PM AKST (11/4)
Length of Visible Light 9h 22m
Length of Day
7h 30m
Waning Gibbous, 70% of the Moon is Illuminated
Nov 4
Waning Gibbous
Nov 6
Last Quarter
Nov 13
New
Nov 20
First Quarter
Nov 28
Full

Hourly Weather History & Observations

Time (AKST) Temp. Windchill Dew Point Humidity Pressure Visibility Wind Dir Wind Speed Gust Speed Precip Events Conditions
12:53 AM 16.0 °F 3.6 °F 1.9 °F 54% 30.05 in 10.0 mi NE 10.4 mph - N/A   Clear
1:53 AM 12.9 °F - 1.9 °F 62% 30.07 in 10.0 mi Calm Calm - N/A   Clear
1:53 AM 12.9 °F - 1.9 °F 62% 30.07 in 10.0 mi Calm Calm - N/A   Clear
3:53 AM 6.1 °F -0.9 °F -0.0 °F 76% 30.07 in 10.0 mi North 3.5 mph - N/A   Clear
4:53 AM 3.0 °F - -0.9 °F 84% 30.07 in 10.0 mi Calm Calm - N/A   Clear
5:53 AM 3.9 °F - -0.9 °F 80% 30.07 in 10.0 mi Calm Calm - N/A   Clear
6:53 AM 3.9 °F -3.4 °F -0.9 °F 80% 30.08 in 10.0 mi North 3.5 mph - N/A   Clear
7:53 AM 3.9 °F -3.4 °F -0.9 °F 80% 30.09 in 10.0 mi North 3.5 mph - N/A   Clear
8:53 AM 3.9 °F -5.3 °F -0.9 °F 80% 30.09 in 10.0 mi NW 4.6 mph - N/A   Clear
9:53 AM 10.0 °F - 1.9 °F 70% 30.09 in 10.0 mi Calm Calm - N/A   Partly Cloudy
10:53 AM 14.0 °F 8.2 °F 3.9 °F 64% 30.09 in 10.0 mi WNW 3.5 mph - N/A   Clear
11:53 AM 15.1 °F 9.4 °F 6.1 °F 68% 30.11 in 10.0 mi North 3.5 mph - N/A   Scattered Clouds
12:53 PM 21.0 °F 14.6 °F 10.9 °F 65% 30.10 in 10.0 mi West 4.6 mph - N/A   Scattered Clouds
1:53 PM 25.0 °F 18.1 °F 12.9 °F 60% 30.10 in 10.0 mi NNW 5.8 mph - N/A   Mostly Cloudy
2:53 PM 25.0 °F 16.3 °F 16.0 °F 69% 30.09 in 10.0 mi West 8.1 mph - N/A   Mostly Cloudy
3:53 PM 26.1 °F 16.8 °F 19.0 °F 75% 30.08 in 10.0 mi WNW 9.2 mph - N/A   Mostly Cloudy
4:53 PM 24.1 °F 15.2 °F 19.0 °F 81% 30.07 in 10.0 mi WNW 8.1 mph - 0.00 in   Mostly Cloudy
5:53 PM 23.0 °F 13.1 °F 19.0 °F 85% 30.07 in 10.0 mi WNW 9.2 mph - N/A   Mostly Cloudy
6:53 PM 21.9 °F 13.4 °F 17.1 °F 82% 30.07 in 10.0 mi NW 6.9 mph - N/A   Mostly Cloudy
7:53 PM 21.0 °F 16.2 °F 17.1 °F 85% 30.08 in 10.0 mi Variable 3.5 mph - N/A   Scattered Clouds
8:53 PM 21.9 °F 17.2 °F 18.0 °F 85% 30.09 in 10.0 mi West 3.5 mph - N/A   Scattered Clouds
9:53 PM 19.9 °F 10.1 °F 15.1 °F 81% 30.09 in 10.0 mi NNW 8.1 mph - N/A   Scattered Clouds
10:53 PM 21.0 °F 9.9 °F 16.0 °F 81% 30.09 in 10.0 mi North 10.4 mph - N/A   Partly Cloudy